| time (UTC) | temp F | wind direction | speed knots | gust knots | rain 1hr in | rain 24hr in | rain mn in | humidity % | barometer mb |
| 20260906155407 | 78 | 94 | 3.5 | 7.0 | 0.00 | 0.00 | 0.00 | 79 | 1016.5 |
| 20260906154908 | 78 | 62 | 3.5 | 7.0 | 0.00 | 0.00 | 0.00 | 80 | 1016.5 |
| 20260906154408 | 78 | 58 | 2.6 | 7.0 | 0.00 | 0.00 | 0.00 | 79 | 1016.5 |
| 20260906153905 | 78 | 55 | 2.6 | 6.1 | 0.00 | 0.00 | 0.00 | 79 | 1016.4 |
| 20260906153405 | 78 | 50 | 2.6 | 6.1 | 0.00 | 0.00 | 0.00 | 78 | 1016.4 |
| 20260906152905 | 78 | 49 | 2.6 | 6.1 | 0.00 | 0.00 | 0.00 | 79 | 1016.4 |
| 20260906152414 | 78 | 77 | 2.6 | 6.1 | 0.00 | 0.00 | 0.00 | 80 | 1016.4 |
| 20260906152404 | 78 | 352 | 2.6 | 6.1 | 0.00 | 0.00 | 0.00 | 80 | 1016.4 |
| 20260906151905 | 79 | 51 | 2.6 | 5.2 | 0.00 | 0.00 | 0.00 | 78 | 1016.4 |
| 20260906151405 | 79 | 1 | 2.6 | 5.2 | 0.00 | 0.00 | 0.00 | 78 | 1016.3 |
| 20260906150905 | 79 | 90 | 2.6 | 4.3 | 0.00 | 0.00 | 0.00 | 78 | 1016.3 |
| 20260906150359 | 78 | 89 | 2.6 | 4.3 | 0.00 | 0.00 | 0.00 | 79 | 1016.3 |
| 20260906145853 | 77 | 137 | 1.7 | 4.3 | 0.00 | 0.00 | 0.00 | 81 | 1016.2 |
| 20260906145353 | 76 | 51 | 1.7 | 4.3 | 0.00 | 0.00 | 0.00 | 83 | 1016.2 |
| 20260906144853 | 76 | 67 | 1.7 | 5.2 | 0.00 | 0.00 | 0.00 | 83 | 1016.2 |
| 20260906144354 | 76 | 65 | 1.7 | 5.2 | 0.00 | 0.00 | 0.00 | 84 | 1016.2 |
| 20260906143853 | 76 | 114 | 1.7 | 5.2 | 0.00 | 0.00 | 0.00 | 83 | 1016.1 |
| 20260906143354 | 76 | 78 | 2.6 | 5.2 | 0.00 | 0.00 | 0.00 | 84 | 1016.0 |
| 20260906142855 | 76 | 50 | 1.7 | 5.2 | 0.00 | 0.00 | 0.00 | 83 | 1016.0 |
| 20260906142455 | 76 | 120 | 1.7 | 5.2 | 0.00 | 0.00 | 0.00 | 83 | 1016.0 |
| 20260906141348 | 76 | 117 | 1.7 | 4.3 | 0.00 | 0.00 | 0.00 | 83 | 1016.1 |
| 20260906140847 | 76 | 78 | 1.7 | 5.2 | 0.00 | 0.00 | 0.00 | 84 | 1016.2 |
| 20260906140348 | 76 | 71 | 1.7 | 5.2 | 0.00 | 0.00 | 0.00 | 84 | 1016.2 |
| 20260906135349 | 76 | 1 | 1.7 | 5.2 | 0.00 | 0.00 | 0.00 | 83 | 1016.2 |
| 20260906134849 | 76 | 25 | 1.7 | 5.2 | 0.00 | 0.00 | 0.00 | 85 | 1016.1 |
| 20260906133345 | 75 | 124 | 1.7 | 5.2 | 0.00 | 0.00 | 0.00 | 87 | 1015.9 |
| 20260906132843 | 75 | 76 | 2.6 | 5.2 | 0.00 | 0.00 | 0.00 | 87 | 1015.8 |
| 20260906132406 | 75 | 75 | 2.6 | 5.2 | 0.00 | 0.00 | 0.00 | 87 | 1015.8 |
| 20260906132339 | 75 | 79 | 2.6 | 5.2 | 0.00 | 0.00 | 0.00 | 87 | 1015.8 |
| 20260906131839 | 75 | 42 | 2.6 | 5.2 | 0.00 | 0.00 | 0.00 | 87 | 1015.7 |
| 20260906131339 | 74 | 55 | 1.7 | 5.2 | 0.00 | 0.00 | 0.00 | 89 | 1015.6 |
| 20260906130337 | 74 | 105 | 1.7 | 5.2 | 0.00 | 0.00 | 0.00 | 90 | 1015.5 |
| 20260906125836 | 74 | 244 | 1.7 | 5.2 | 0.00 | 0.00 | 0.00 | 91 | 1015.5 |
| 20260906124837 | 73 | 84 | 1.7 | 5.2 | 0.00 | 0.00 | 0.00 | 92 | 1015.3 |
| 20260906124337 | 73 | 116 | 1.7 | 5.2 | 0.00 | 0.00 | 0.00 | 92 | 1015.2 |
| 20260906123837 | 73 | 77 | 1.7 | 5.2 | 0.00 | 0.00 | 0.00 | 93 | 1015.1 |
| 20260906123337 | 73 | 57 | 1.7 | 4.3 | 0.00 | 0.00 | 0.00 | 93 | 1015.1 |
| 20260906122837 | 73 | 108 | 1.7 | 4.3 | 0.00 | 0.00 | 0.00 | 93 | 1015.1 |
| 20260906122404 | 73 | 74 | 1.7 | 4.3 | 0.00 | 0.00 | 0.00 | 93 | 1014.9 |
| 20260906122337 | 73 | 57 | 1.7 | 4.3 | 0.00 | 0.00 | 0.00 | 93 | 1014.9 |
| 20260906121337 | 73 | 58 | 1.7 | 3.5 | 0.00 | 0.00 | 0.00 | 93 | 1014.9 |
| 20260906120838 | 73 | 78 | 1.7 | 2.6 | 0.00 | 0.00 | 0.00 | 93 | 1014.9 |
| 20260906120337 | 73 | 97 | 1.7 | 2.6 | 0.00 | 0.00 | 0.00 | 93 | 1014.8 |
| 20260906115837 | 73 | 13 | 1.7 | 2.6 | 0.00 | 0.00 | 0.00 | 93 | 1014.9 |
| 20260906115335 | 73 | 4 | 0.9 | 2.6 | 0.00 | 0.00 | 0.00 | 93 | 1014.9 |
| 20260906114836 | 73 | 78 | 0.9 | 3.5 | 0.00 | 0.00 | 0.00 | 93 | 1014.9 |
| 20260906114335 | 73 | 80 | 0.9 | 3.5 | 0.00 | 0.00 | 0.00 | 93 | 1014.8 |
| 20260906113835 | 73 | 36 | 0.9 | 3.5 | 0.00 | 0.00 | 0.00 | 93 | 1014.7 |
| 20260906113328 | 73 | 98 | 0.9 | 3.5 | 0.00 | 0.00 | 0.00 | 93 | 1014.8 |
| 20260906112826 | 73 | 53 | 0.9 | 2.6 | 0.00 | 0.00 | 0.00 | 93 | 1014.8 |
| 20260906112402 | 73 | 18 | 0.9 | 3.5 | 0.00 | 0.00 | 0.00 | 93 | 1014.7 |
| 20260906112326 | 73 | 85 | 0.9 | 2.6 | 0.00 | 0.00 | 0.00 | 93 | 1014.7 |
| 20260906111826 | 73 | 68 | 0.9 | 2.6 | 0.00 | 0.00 | 0.00 | 93 | 1014.7 |
| 20260906110820 | 73 | 130 | 1.7 | 3.5 | 0.00 | 0.00 | 0.00 | 92 | 1014.6 |
| 20260906110321 | 73 | 75 | 1.7 | 3.5 | 0.00 | 0.00 | 0.00 | 92 | 1014.6 |
| 20260906105820 | 73 | 45 | 1.7 | 2.6 | 0.00 | 0.00 | 0.00 | 92 | 1014.7 |
| 20260906105320 | 73 | 89 | 1.7 | 3.5 | 0.00 | 0.00 | 0.00 | 92 | 1014.7 |
| 20260906104820 | 73 | 63 | 1.7 | 3.5 | 0.00 | 0.00 | 0.00 | 92 | 1014.6 |
| 20260906103812 | 73 | 359 | 1.7 | 3.5 | 0.00 | 0.00 | 0.00 | 92 | 1014.7 |
| 20260906103309 | 73 | 93 | 1.7 | 3.5 | 0.00 | 0.00 | 0.00 | 92 | 1014.6 |
| 20260906102809 | 73 | 1 | 0.9 | 2.6 | 0.00 | 0.00 | 0.00 | 92 | 1014.7 |
| 20260906102308 | 73 | 21 | 0.9 | 4.3 | 0.00 | 0.00 | 0.00 | 92 | 1014.7 |
| 20260906101306 | 73 | 68 | 1.7 | 3.5 | 0.00 | 0.00 | 0.00 | 92 | 1014.6 |
| 20260906100806 | 73 | 117 | 0.9 | 3.5 | 0.00 | 0.00 | 0.00 | 92 | 1014.6 |
| 20260906100303 | 74 | 12 | 0.9 | 3.5 | 0.00 | 0.00 | 0.00 | 91 | 1014.3 |
| 20260906095759 | 74 | 121 | 1.7 | 4.3 | 0.00 | 0.00 | 0.00 | 91 | 1014.2 |
| 20260906095300 | 74 | 112 | 0.9 | 4.3 | 0.00 | 0.00 | 0.00 | 91 | 1014.2 |
| 20260906093800 | 74 | 118 | 1.7 | 4.3 | 0.00 | 0.00 | 0.00 | 91 | 1014.1 |
| 20260906093300 | 74 | 65 | 1.7 | 4.3 | 0.00 | 0.00 | 0.00 | 91 | 1014.1 |
| 20260906092801 | 74 | 99 | 1.7 | 4.3 | 0.00 | 0.00 | 0.00 | 91 | 1014.2 |
| 20260906092400 | 74 | 52 | 1.7 | 3.5 | 0.00 | 0.00 | 0.00 | 92 | 1014.3 |
| 20260906092300 | 74 | 83 | 1.7 | 3.5 | 0.00 | 0.00 | 0.00 | 92 | 1014.3 |
| 20260906091300 | 74 | 144 | 1.7 | 3.5 | 0.00 | 0.00 | 0.00 | 92 | 1014.1 |
| 20260906090800 | 74 | 111 | 0.9 | 2.6 | 0.00 | 0.00 | 0.00 | 93 | 1014.1 |
| 20260906090258 | 74 | 79 | 0.9 | 1.7 | 0.00 | 0.00 | 0.00 | 93 | 1014.0 |
| 20260906085758 | 74 | 56 | 0.9 | 2.6 | 0.00 | 0.00 | 0.00 | 93 | 1013.9 |
| 20260906085259 | 74 | 66 | 0.9 | 2.6 | 0.00 | 0.00 | 0.00 | 93 | 1013.8 |
| 20260906084755 | 74 | 82 | 0.9 | 2.6 | 0.00 | 0.00 | 0.00 | 93 | 1013.7 |
| 20260906084256 | 74 | 93 | 1.7 | 2.6 | 0.00 | 0.00 | 0.00 | 93 | 1013.7 |
| 20260906083753 | 74 | 92 | 1.7 | 3.5 | 0.00 | 0.00 | 0.00 | 92 | 1013.7 |
| 20260906083249 | 74 | 83 | 1.7 | 3.5 | 0.00 | 0.00 | 0.00 | 92 | 1013.7 |
| 20260906082750 | 74 | 110 | 0.9 | 2.6 | 0.00 | 0.00 | 0.00 | 92 | 1013.8 |
| 20260906082359 | 74 | 20 | 0.9 | 3.5 | 0.00 | 0.00 | 0.00 | 92 | 1013.7 |
| 20260906081750 | 74 | 93 | 0.9 | 1.7 | 0.00 | 0.00 | 0.00 | 92 | 1013.7 |
| 20260906081250 | 74 | 132 | 0.9 | 2.6 | 0.00 | 0.00 | 0.00 | 92 | 1013.7 |
| 20260906080248 | 74 | 289 | 0.9 | 1.7 | 0.00 | 0.00 | 0.00 | 92 | 1013.6 |
| 20260906075745 | 74 | 124 | 0.9 | 2.6 | 0.00 | 0.00 | 0.00 | 92 | 1013.7 |
| 20260906074742 | 74 | 106 | 1.7 | 3.5 | 0.00 | 0.00 | 0.00 | 92 | 1013.7 |
| 20260906074241 | 74 | 109 | 1.7 | 3.5 | 0.00 | 0.00 | 0.00 | 92 | 1013.6 |
| 20260906073739 | 75 | 14 | 1.7 | 3.5 | 0.00 | 0.00 | 0.00 | 92 | 1013.6 |
| 20260906073238 | 75 | 52 | 0.9 | 2.6 | 0.00 | 0.00 | 0.00 | 92 | 1013.6 |
| 20260906072737 | 75 | 149 | 0.9 | 2.6 | 0.00 | 0.00 | 0.00 | 92 | 1013.6 |
| 20260906072356 | 75 | 105 | 0.9 | 5.2 | 0.00 | 0.00 | 0.00 | 92 | 1013.7 |
| 20260906072233 | 75 | 359 | 0.9 | 3.5 | 0.00 | 0.00 | 0.00 | 92 | 1013.7 |
| 20260906071733 | 75 | 94 | 1.7 | 3.5 | 0.00 | 0.00 | 0.00 | 92 | 1013.8 |
| 20260906070733 | 75 | 99 | 1.7 | 3.5 | 0.00 | 0.00 | 0.00 | 92 | 1013.7 |
| 20260906070233 | 75 | 80 | 1.7 | 3.5 | 0.00 | 0.00 | 0.00 | 92 | 1013.8 |
| 20260906065233 | 75 | 85 | 1.7 | 3.5 | 0.00 | 0.00 | 0.00 | 91 | 1014.0 |
| 20260906064734 | 75 | 103 | 1.7 | 3.5 | 0.00 | 0.00 | 0.00 | 91 | 1014.1 |
| 20260906064230 | 75 | 45 | 1.7 | 3.5 | 0.00 | 0.00 | 0.00 | 91 | 1014.1 |
| 20260906063730 | 76 | 87 | 1.7 | 5.2 | 0.00 | 0.00 | 0.00 | 91 | 1014.1 |
| 20260906063231 | 76 | 125 | 1.7 | 5.2 | 0.00 | 0.00 | 0.00 | 91 | 1014.1 |
| 20260906062355 | 76 | 51 | 1.7 | 6.1 | 0.00 | 0.00 | 0.00 | 91 | 1014.0 |
| 20260906062218 | 76 | 69 | 1.7 | 5.2 | 0.00 | 0.00 | 0.00 | 91 | 1014.1 |
| 20260906061718 | 76 | 73 | 1.7 | 5.2 | 0.00 | 0.00 | 0.00 | 91 | 1014.1 |
| 20260906061218 | 76 | 137 | 1.7 | 6.1 | 0.00 | 0.00 | 0.00 | 90 | 1014.1 |
| 20260906060719 | 76 | 109 | 1.7 | 6.1 | 0.00 | 0.00 | 0.00 | 90 | 1014.1 |
| 20260906055718 | 76 | 55 | 1.7 | 4.3 | 0.00 | 0.00 | 0.00 | 90 | 1014.0 |
| 20260906055219 | 76 | 15 | 1.7 | 3.5 | 0.00 | 0.00 | 0.00 | 90 | 1014.0 |
| 20260906054718 | 76 | 95 | 1.7 | 4.3 | 0.00 | 0.00 | 0.00 | 90 | 1013.9 |
| 20260906054219 | 77 | 10 | 1.7 | 4.3 | 0.00 | 0.00 | 0.00 | 89 | 1014.0 |
| 20260906053719 | 77 | 49 | 1.7 | 3.5 | 0.00 | 0.00 | 0.00 | 89 | 1014.0 |
| 20260906053220 | 77 | 335 | 1.7 | 4.3 | 0.00 | 0.00 | 0.00 | 89 | 1014.0 |
| 20260906052719 | 77 | 317 | 1.7 | 5.2 | 0.00 | 0.00 | 0.00 | 89 | 1013.9 |
| 20260906052353 | 77 | 79 | 1.7 | 5.2 | 0.00 | 0.00 | 0.00 | 89 | 1013.8 |
| 20260906052220 | 77 | 16 | 1.7 | 5.2 | 0.00 | 0.00 | 0.00 | 89 | 1013.8 |
| 20260906051720 | 77 | 57 | 1.7 | 3.5 | 0.00 | 0.00 | 0.00 | 89 | 1013.8 |
| 20260906051217 | 77 | 102 | 1.7 | 3.5 | 0.00 | 0.00 | 0.00 | 88 | 1013.8 |
| 20260906050717 | 78 | 13 | 1.7 | 3.5 | 0.00 | 0.00 | 0.00 | 88 | 1013.8 |
| 20260906050218 | 78 | 49 | 1.7 | 3.5 | 0.00 | 0.00 | 0.00 | 88 | 1013.7 |
| 20260906045718 | 78 | 83 | 1.7 | 5.2 | 0.00 | 0.00 | 0.00 | 88 | 1013.6 |
| 20260906045212 | 78 | 53 | 1.7 | 5.2 | 0.00 | 0.00 | 0.00 | 88 | 1013.6 |
| 20260906044711 | 78 | 56 | 1.7 | 3.5 | 0.00 | 0.00 | 0.00 | 88 | 1013.6 |
| 20260906044211 | 78 | 11 | 1.7 | 3.5 | 0.00 | 0.00 | 0.00 | 87 | 1013.5 |
| 20260906043211 | 79 | 76 | 1.7 | 5.2 | 0.00 | 0.00 | 0.00 | 87 | 1013.5 |
| 20260906042711 | 79 | 82 | 1.7 | 5.2 | 0.00 | 0.00 | 0.00 | 87 | 1013.5 |
| 20260906042211 | 79 | 51 | 1.7 | 3.5 | 0.00 | 0.00 | 0.00 | 87 | 1013.4 |
| 20260906041712 | 79 | 110 | 1.7 | 3.5 | 0.00 | 0.00 | 0.00 | 87 | 1013.3 |
| 20260906041211 | 79 | 60 | 1.7 | 5.2 | 0.00 | 0.00 | 0.00 | 87 | 1013.2 |
| 20260906040710 | 80 | 101 | 1.7 | 5.2 | 0.00 | 0.00 | 0.00 | 87 | 1013.2 |
| 20260906040203 | 80 | 59 | 1.7 | 5.2 | 0.00 | 0.00 | 0.00 | 86 | 1013.1 |
| 20260906035702 | 80 | 56 | 1.7 | 4.3 | 0.00 | 0.00 | 0.00 | 86 | 1013.1 |
| 20260906035203 | 80 | 53 | 1.7 | 4.3 | 0.00 | 0.00 | 0.00 | 86 | 1013.1 |
| 20260906034703 | 80 | 45 | 1.7 | 4.3 | 0.00 | 0.00 | 0.00 | 86 | 1013.2 |
| 20260906034203 | 80 | 55 | 2.6 | 5.2 | 0.00 | 0.00 | 0.00 | 85 | 1013.2 |
| 20260906033704 | 80 | 97 | 2.6 | 5.2 | 0.00 | 0.00 | 0.00 | 85 | 1013.2 |
| 20260906033200 | 81 | 62 | 1.7 | 3.5 | 0.00 | 0.00 | 0.00 | 86 | 1013.1 |
| 20260906032351 | 81 | 89 | 1.7 | 5.2 | 0.00 | 0.00 | 0.00 | 86 | 1013.0 |
| 20260906032156 | 81 | 92 | 1.7 | 3.5 | 0.00 | 0.00 | 0.00 | 86 | 1013.0 |
| 20260906031653 | 82 | 105 | 1.7 | 4.3 | 0.00 | 0.00 | 0.00 | 86 | 1012.9 |
| 20260906030153 | 82 | 33 | 1.7 | 4.3 | 0.00 | 0.00 | 0.00 | 85 | 1012.7 |
| 20260906025648 | 82 | 57 | 1.7 | 4.3 | 0.00 | 0.00 | 0.00 | 85 | 1012.5 |
| 20260906025149 | 83 | 134 | 1.7 | 5.2 | 0.00 | 0.00 | 0.00 | 85 | 1012.5 |
| 20260906024649 | 83 | 43 | 2.6 | 5.2 | 0.00 | 0.00 | 0.00 | 84 | 1012.4 |
| 20260906024148 | 83 | 102 | 2.6 | 5.2 | 0.00 | 0.00 | 0.00 | 83 | 1012.3 |
| 20260906023649 | 84 | 47 | 2.6 | 5.2 | 0.00 | 0.00 | 0.00 | 82 | 1012.2 |
| 20260906023149 | 84 | 53 | 2.6 | 5.2 | 0.00 | 0.00 | 0.00 | 81 | 1012.2 |
| 20260906022648 | 85 | 97 | 1.7 | 5.2 | 0.00 | 0.00 | 0.00 | 80 | 1012.1 |
| 20260906022149 | 85 | 71 | 1.7 | 5.2 | 0.00 | 0.00 | 0.00 | 79 | 1012.1 |
| 20260906021646 | 85 | 43 | 1.7 | 5.2 | 0.00 | 0.00 | 0.00 | 78 | 1012.1 |
| 20260906021142 | 85 | 95 | 1.7 | 2.6 | 0.00 | 0.00 | 0.00 | 78 | 1012.0 |
| 20260906020637 | 85 | 17 | 0.9 | 3.5 | 0.00 | 0.00 | 0.00 | 78 | 1011.9 |
| 20260906015638 | 85 | 57 | 0.9 | 3.5 | 0.00 | 0.00 | 0.00 | 78 | 1011.8 |
| 20260906015138 | 85 | 87 | 0.9 | 3.5 | 0.00 | 0.00 | 0.00 | 78 | 1011.7 |
| 20260906014637 | 86 | 359 | 0.9 | 1.7 | 0.00 | 0.00 | 0.00 | 78 | 1011.7 |
| 20260906014137 | 86 | 117 | 0.9 | 1.7 | 0.00 | 0.00 | 0.00 | 77 | 1011.6 |
| 20260906013634 | 86 | 18 | 0.9 | 1.7 | 0.00 | 0.00 | 0.00 | 77 | 1011.4 |
| 20260906013133 | 86 | 83 | 0.9 | 1.7 | 0.00 | 0.00 | 0.00 | 77 | 1011.4 |
| 20260906012628 | 86 | 77 | 0.9 | 1.7 | 0.00 | 0.00 | 0.00 | 77 | 1011.5 |
| 20260906012343 | 86 | 100 | 0.9 | 3.5 | 0.00 | 0.00 | 0.00 | 77 | 1011.5 |
| 20260906012128 | 86 | 83 | 0.9 | 1.7 | 0.00 | 0.00 | 0.00 | 76 | 1011.5 |
| 20260906011628 | 87 | 80 | 0.9 | 1.7 | 0.00 | 0.00 | 0.00 | 76 | 1011.5 |
| 20260906011128 | 87 | 14 | 0.9 | 1.7 | 0.00 | 0.00 | 0.00 | 76 | 1011.4 |
| 20260906010629 | 87 | 89 | 0.9 | 3.5 | 0.00 | 0.00 | 0.00 | 75 | 1011.4 |
| 20260906010129 | 87 | 337 | 1.7 | 3.5 | 0.00 | 0.00 | 0.00 | 75 | 1011.3 |
| 20260906004629 | 88 | 55 | 1.7 | 3.5 | 0.00 | 0.00 | 0.00 | 74 | 1011.2 |
| 20260906003626 | 88 | 95 | 1.7 | 3.5 | 0.00 | 0.00 | 0.00 | 73 | 1011.2 |
| 20260906002627 | 89 | 42 | 0.9 | 3.5 | 0.00 | 0.00 | 0.00 | 72 | 1011.2 |
| 20260906002344 | 89 | 45 | 0.9 | 4.3 | 0.00 | 0.00 | 0.00 | 72 | 1011.2 |
| 20260906002124 | 89 | 59 | 0.9 | 3.5 | 0.00 | 0.00 | 0.00 | 72 | 1011.2 |
| 20260906001120 | 89 | 97 | 1.7 | 3.5 | 0.00 | 0.00 | 0.00 | 71 | 1011.3 |
| 20260906000621 | 90 | 124 | 1.7 | 3.5 | 0.00 | 0.00 | 0.00 | 69 | 1011.3 |
| 20260906000120 | 90 | 56 | 1.7 | 3.5 | 0.00 | 0.00 | 0.00 | 69 | 1011.3 |
| 20260905235622 | 90 | 101 | 1.7 | 3.5 | 0.00 | 0.00 | 0.00 | 68 | 1011.4 |
| 20260905235120 | 90 | 50 | 1.7 | 3.5 | 0.00 | 0.00 | 0.00 | 69 | 1011.3 |
| 20260905234618 | 91 | 11 | 1.7 | 2.6 | 0.00 | 0.00 | 0.00 | 68 | 1011.2 |
| 20260905234118 | 91 | 101 | 1.7 | 3.5 | 0.00 | 0.00 | 0.00 | 68 | 1011.2 |
| 20260905233618 | 91 | 53 | 1.7 | 4.3 | 0.00 | 0.00 | 0.00 | 68 | 1011.2 |
| 20260905233119 | 91 | 54 | 1.7 | 4.3 | 0.00 | 0.00 | 0.00 | 68 | 1011.2 |
| 20260905232618 | 91 | 39 | 1.7 | 5.2 | 0.00 | 0.00 | 0.00 | 67 | 1011.2 |
| 20260905232119 | 91 | 50 | 2.6 | 5.2 | 0.00 | 0.00 | 0.00 | 67 | 1011.0 |
| 20260905231116 | 91 | 58 | 1.7 | 5.2 | 0.00 | 0.00 | 0.00 | 67 | 1011.1 |
| 20260905225613 | 91 | 50 | 1.7 | 4.3 | 0.00 | 0.00 | 0.00 | 65 | 1011.0 |
| 20260905225112 | 91 | 59 | 1.7 | 6.1 | 0.00 | 0.00 | 0.00 | 65 | 1010.9 |
| 20260905224110 | 92 | 55 | 1.7 | 4.3 | 0.00 | 0.00 | 0.00 | 65 | 1010.7 |
| 20260905223610 | 92 | 46 | 1.7 | 4.3 | 0.00 | 0.00 | 0.00 | 64 | 1010.8 |
| 20260905222601 | 92 | 38 | 2.6 | 6.1 | 0.00 | 0.00 | 0.00 | 61 | 1010.7 |
| 20260905222101 | 92 | 57 | 2.6 | 5.2 | 0.00 | 0.00 | 0.00 | 61 | 1010.8 |
| 20260905221600 | 93 | 46 | 1.7 | 4.3 | 0.00 | 0.00 | 0.00 | 61 | 1010.9 |
| 20260905221101 | 93 | 63 | 1.7 | 3.5 | 0.00 | 0.00 | 0.00 | 60 | 1010.7 |
| 20260905220601 | 93 | 59 | 0.9 | 3.5 | 0.00 | 0.00 | 0.00 | 60 | 1010.7 |
| 20260905215557 | 93 | 19 | 1.7 | 5.2 | 0.00 | 0.00 | 0.00 | 60 | 1010.5 |
| 20260905214557 | 94 | 56 | 1.7 | 4.3 | 0.00 | 0.00 | 0.00 | 60 | 1010.6 |
| 20260905213556 | 94 | 11 | 1.7 | 8.7 | 0.00 | 0.00 | 0.00 | 59 | 1010.6 |
| 20260905213053 | 95 | 37 | 1.7 | 4.3 | 0.00 | 0.00 | 0.00 | 58 | 1010.6 |
| 20260905212335 | 95 | 99 | 1.7 | 4.3 | 0.00 | 0.00 | 0.00 | 56 | 1010.7 |
| 20260905212053 | 95 | 45 | 1.7 | 3.5 | 0.00 | 0.00 | 0.00 | 56 | 1010.7 |
| 20260905211552 | 95 | 60 | 0.9 | 3.5 | 0.00 | 0.00 | 0.00 | 55 | 1010.7 |
| 20260905211053 | 95 | 51 | 0.9 | 2.6 | 0.00 | 0.00 | 0.00 | 55 | 1010.8 |
| 20260905210553 | 95 | 53 | 1.7 | 4.3 | 0.00 | 0.00 | 0.00 | 57 | 1010.8 |
| 20260905210050 | 96 | 29 | 1.7 | 4.3 | 0.00 | 0.00 | 0.00 | 55 | 1010.8 |
| 20260905205050 | 96 | 53 | 1.7 | 4.3 | 0.00 | 0.00 | 0.00 | 56 | 1011.0 |
| 20260905204550 | 96 | 102 | 1.7 | 4.3 | 0.00 | 0.00 | 0.00 | 56 | 1011.0 |
| 20260905203548 | 97 | 47 | 1.7 | 4.3 | 0.00 | 0.00 | 0.00 | 54 | 1011.0 |
| 20260905203039 | 98 | 39 | 1.7 | 4.3 | 0.00 | 0.00 | 0.00 | 52 | 1011.1 |
| 20260905202536 | 98 | 56 | 1.7 | 3.5 | 0.00 | 0.00 | 0.00 | 52 | 1011.1 |
| 20260905202333 | 98 | 318 | 1.7 | 4.3 | 0.00 | 0.00 | 0.00 | 53 | 1011.2 |
| 20260905201536 | 98 | 348 | 1.7 | 3.5 | 0.00 | 0.00 | 0.00 | 50 | 1011.2 |
| 20260905201033 | 98 | 296 | 0.9 | 3.5 | 0.00 | 0.00 | 0.00 | 49 | 1011.2 |
| 20260905200530 | 98 | 44 | 0.9 | 3.5 | 0.00 | 0.00 | 0.00 | 49 | 1011.3 |
| 20260905195530 | 97 | 24 | 1.7 | 3.5 | 0.00 | 0.00 | 0.00 | 52 | 1011.4 |
| 20260905194530 | 98 | 330 | 0.9 | 3.5 | 0.00 | 0.00 | 0.00 | 47 | 1011.6 |
| 20260905193527 | 96 | 336 | 1.7 | 4.3 | 0.00 | 0.00 | 0.00 | 51 | 1011.7 |
| 20260905193024 | 96 | 339 | 1.7 | 4.3 | 0.00 | 0.00 | 0.00 | 51 | 1011.8 |
| 20260905192522 | 97 | 334 | 1.7 | 4.3 | 0.00 | 0.00 | 0.00 | 54 | 1011.8 |
| 20260905192333 | 97 | 347 | 1.7 | 5.2 | 0.00 | 0.00 | 0.00 | 53 | 1011.9 |
| 20260905192022 | 99 | 274 | 1.7 | 4.3 | 0.00 | 0.00 | 0.00 | 49 | 1011.9 |
| 20260905191521 | 98 | 21 | 1.7 | 4.3 | 0.00 | 0.00 | 0.00 | 51 | 1012.0 |
| 20260905190518 | 98 | 41 | 1.7 | 5.2 | 0.00 | 0.00 | 0.00 | 51 | 1012.1 |
| 20260905185520 | 98 | 298 | 1.7 | 5.2 | 0.00 | 0.00 | 0.00 | 48 | 1012.2 |
| 20260905185021 | 97 | 40 | 1.7 | 5.2 | 0.00 | 0.00 | 0.00 | 51 | 1012.2 |
| 20260905184516 | 96 | 46 | 1.7 | 4.3 | 0.00 | 0.00 | 0.00 | 52 | 1012.2 |
| 20260905183513 | 95 | 324 | 1.7 | 5.2 | 0.00 | 0.00 | 0.00 | 56 | 1012.2 |
| 20260905183013 | 95 | 10 | 1.7 | 5.2 | 0.00 | 0.00 | 0.00 | 56 | 1012.2 |
| 20260905182514 | 95 | 288 | 1.7 | 5.2 | 0.00 | 0.00 | 0.00 | 54 | 1012.3 |
| 20260905182331 | 95 | 275 | 1.7 | 6.1 | 0.00 | 0.00 | 0.00 | 54 | 1012.3 |
| 20260905182013 | 95 | 314 | 1.7 | 2.6 | 0.00 | 0.00 | 0.00 | 55 | 1012.3 |
| 20260905181510 | 94 | 46 | 1.7 | 4.3 | 0.00 | 0.00 | 0.00 | 56 | 1012.3 |
| 20260905181008 | 95 | 312 | 1.7 | 4.3 | 0.00 | 0.00 | 0.00 | 57 | 1012.4 |
| 20260905180508 | 95 | 295 | 0.9 | 4.3 | 0.00 | 0.00 | 0.00 | 55 | 1012.4 |
| 20260905180008 | 96 | 281 | 0.9 | 3.5 | 0.00 | 0.00 | 0.00 | 56 | 1012.3 |
| 20260905175507 | 95 | 0 | 1.7 | 5.2 | 0.00 | 0.00 | 0.00 | 55 | 1012.2 |
| 20260905175005 | 94 | 35 | 1.7 | 5.2 | 0.00 | 0.00 | 0.00 | 56 | 1012.2 |
| 20260905174502 | 94 | 296 | 1.7 | 4.3 | 0.00 | 0.00 | 0.00 | 57 | 1012.3 |
| 20260905174002 | 94 | 7 | 1.7 | 4.3 | 0.00 | 0.00 | 0.00 | 56 | 1012.3 |
| 20260905173501 | 93 | 38 | 1.7 | 6.1 | 0.00 | 0.00 | 0.00 | 58 | 1012.3 |
| 20260905172959 | 93 | 322 | 1.7 | 6.1 | 0.00 | 0.00 | 0.00 | 58 | 1012.3 |
| 20260905172459 | 93 | 5 | 1.7 | 4.3 | 0.00 | 0.00 | 0.00 | 60 | 1012.4 |
| 20260905172329 | 93 | 295 | 1.7 | 5.2 | 0.00 | 0.00 | 0.00 | 60 | 1012.4 |
| 20260905171959 | 92 | 290 | 1.7 | 4.3 | 0.00 | 0.00 | 0.00 | 61 | 1012.5 |
| 20260905171459 | 93 | 316 | 1.7 | 4.3 | 0.00 | 0.00 | 0.00 | 61 | 1012.6 |
| 20260905170500 | 93 | 51 | 1.7 | 5.2 | 0.00 | 0.00 | 0.00 | 59 | 1012.7 |
| 20260905165959 | 93 | 312 | 1.7 | 3.5 | 0.00 | 0.00 | 0.00 | 60 | 1012.7 |
| 20260905165500 | 94 | 28 | 1.7 | 3.5 | 0.00 | 0.00 | 0.00 | 59 | 1012.7 |
| 20260905164957 | 94 | 279 | 0.9 | 3.5 | 0.00 | 0.00 | 0.00 | 55 | 1012.6 |
| 20260905164456 | 94 | 0 | 0.9 | 3.5 | 0.00 | 0.00 | 0.00 | 58 | 1012.6 |
| 20260905163954 | 93 | 338 | 1.7 | 4.3 | 0.00 | 0.00 | 0.00 | 60 | 1012.7 |
| 20260905163454 | 92 | 346 | 1.7 | 4.3 | 0.00 | 0.00 | 0.00 | 61 | 1012.7 |
| 20260905162954 | 92 | 287 | 1.7 | 3.5 | 0.00 | 0.00 | 0.00 | 60 | 1012.8 |
| 20260905162454 | 92 | 279 | 1.7 | 2.6 | 0.00 | 0.00 | 0.00 | 59 | 1012.8 |
| 20260905162327 | 92 | 262 | 1.7 | 5.2 | 0.00 | 0.00 | 0.00 | 59 | 1012.8 |
| 20260905161953 | 92 | 60 | 1.7 | 4.3 | 0.00 | 0.00 | 0.00 | 60 | 1012.8 |
| 20260905161451 | 91 | 347 | 1.7 | 4.3 | 0.00 | 0.00 | 0.00 | 61 | 1012.8 |
| 20260905160950 | 91 | 326 | 1.7 | 3.5 | 0.00 | 0.00 | 0.00 | 62 | 1012.8 |
| 20260905160451 | 90 | 326 | 1.7 | 3.5 | 0.00 | 0.00 | 0.00 | 62 | 1012.8 |
| 20260905155952 | 90 | 260 | 1.7 | 3.5 | 0.00 | 0.00 | 0.00 | 62 | 1012.8 |